Change the Weather History Date:

Monday, May 27, 2013

  Actual Average (KHTL) Record (KHTL)
Temperature  
Mean Temperature 52 °F 57 °F  
Max Temperature 72 °F 70 °F 89 °F (1978)
Min Temperature 31 °F 45 °F 23 °F (1930)
Degree Days  
Heating Degree Days 14 8  
Month to date heating degree days 326  
Since 1 July heating degree days 7987  
Cooling Degree Days 0 1  
Month to date cooling degree days 8  
Year to date cooling degree days 10  
Growing Degree Days 2 (Base 50)    
Moisture  
Dew Point 32 °F    
Average Humidity 52    
Maximum Humidity 100    
Minimum Humidity 18    
Precipitation  
Precipitation 0.00 in 0.09 in 1.53 in (2012)
Month to date precipitation 2.42  
Year to date precipitation 9.46  
Sea Level Pressure  
Sea Level Pressure 30.16 in    
Wind  
Wind Speed 4 mph (ESE)    
Max Wind Speed 16 mph    
Max Gust Speed 25 mph    
Visibility 10 miles    
Events      
T = Trace of Precipitation, MM = Missing Value Source: NWS Daily Summary

Daily Weather History Graph

Daily Weather History Graph

Search for Another Location

Airport or City:

Trip Planner

Search our weather history database for the weather conditions in past years. The results will help you decide how hot, cold, wet, or windy it might be!

Date:

Astronomy

May. 27, 2013 Rise Set
Actual Time 5:59 AM EDT 9:13 PM EDT
Civil Twilight 5:24 AM EDT 9:48 PM EDT
Nautical Twilight 4:38 AM EDT 10:34 PM EDT
Astronomical Twilight 3:41 AM EDT 11:31 PM EDT
Moon 11:48 PM EDT (5/27) 8:37 AM EDT (5/27)
Length of Visible Light 16h 24m
Length of Day
15h 13m
Waning Gibbous, 91% of the Moon is Illuminated
May 27
Waning Gibbous
May 31
Last Quarter
Jun 8
New
Jun 16
First Quarter
Jun 23
Full

Hourly Weather History & Observations

Time (EDT) Temp. Windchill Dew Point Humidity Pressure Visibility Wind Dir Wind Speed Gust Speed Precip Events Conditions
12:15 AM 42.1 °F - 34.9 °F 76% 30.28 in 10.0 mi Calm Calm - N/A   Clear
12:34 AM 40.5 °F - 34.2 °F 78% 30.28 in 10.0 mi Calm Calm - N/A   Clear
12:55 AM 39.4 °F - 34.7 °F 83% 30.27 in 10.0 mi Calm Calm - N/A   Clear
1:14 AM 38.5 °F - 34.7 °F 86% 30.26 in 10.0 mi Calm Calm - N/A   Clear
1:35 AM 38.3 °F - 36.1 °F 92% 30.27 in 10.0 mi Calm Calm - N/A   Clear
1:55 AM 35.8 °F - 33.4 °F 91% 30.27 in 10.0 mi Calm Calm - N/A   Clear
2:14 AM 37.6 °F - 35.1 °F 91% 30.27 in 10.0 mi Calm Calm - N/A   Clear
2:35 AM 35.8 °F - 34.2 °F 94% 30.27 in 10.0 mi Calm Calm - N/A   Clear
2:55 AM 35.1 °F - 34.0 °F 96% 30.26 in 10.0 mi Calm Calm - N/A   Clear
3:14 AM 33.6 °F - 32.5 °F 96% 30.25 in 10.0 mi Calm Calm - N/A   Clear
3:35 AM 33.3 °F - 32.9 °F 99% 30.24 in 10.0 mi Calm Calm - N/A   Clear
3:55 AM 33.3 °F - 32.9 °F 99% 30.24 in 10.0 mi Calm Calm - N/A   Clear
4:14 AM 33.3 °F - 32.9 °F 99% 30.24 in 10.0 mi Calm Calm - N/A   Clear
4:35 AM 33.3 °F - 32.9 °F 99% 30.23 in 10.0 mi Calm Calm - N/A   Clear
4:55 AM 33.3 °F - 32.9 °F 99% 30.23 in 10.0 mi Calm Calm - N/A   Clear
5:14 AM 33.3 °F - 32.5 °F 97% 30.23 in 10.0 mi Calm Calm - N/A   Clear
5:35 AM 33.3 °F - 32.9 °F 99% 30.24 in 10.0 mi Calm Calm - N/A   Clear
5:55 AM 33.3 °F - 33.3 °F 100% 30.24 in 10.0 mi Calm Calm - N/A   Clear
6:14 AM 31.6 °F - 31.1 °F 98% 30.24 in 10.0 mi Calm Calm - N/A   Clear
6:35 AM 33.3 °F - 33.1 °F 99% 30.24 in 10.0 mi Calm Calm - N/A   Clear
6:55 AM 35.8 °F - 35.2 °F 98% 30.25 in 10.0 mi Calm Calm - N/A   Clear
7:14 AM 38.3 °F - 36.3 °F 93% 30.25 in 10.0 mi Calm Calm - N/A   Clear
7:35 AM 39.4 °F - 35.8 °F 87% 30.25 in 10.0 mi Calm Calm - N/A   Clear
7:55 AM 41.2 °F 39.2 °F 35.8 °F 81% 30.24 in 10.0 mi East 3.5 mph - N/A   Clear
8:14 AM 43.9 °F - 36.5 °F 75% 30.23 in 10.0 mi Calm Calm - N/A   Clear
8:35 AM 48.4 °F - 37.6 °F 66% 30.23 in 10.0 mi ESE 3.5 mph - N/A   Clear
8:54 AM 48.7 °F - 36.7 °F 63% 30.23 in 10.0 mi East 3.5 mph - N/A   Clear
9:15 AM 53.6 °F - 38.1 °F 56% 30.22 in 10.0 mi East 3.5 mph - N/A   Clear
9:35 AM 56.5 °F - 35.4 °F 45% 30.23 in 10.0 mi ESE 4.6 mph - N/A   Clear
9:54 AM 59.2 °F - 32.9 °F 37% 30.23 in 10.0 mi ESE 6.9 mph - N/A   Clear
10:15 AM 61.0 °F - 32.5 °F 34% 30.23 in 10.0 mi ESE 6.9 mph - N/A   Clear
10:35 AM 62.4 °F - 32.9 °F 33% 30.23 in 10.0 mi SE 8.1 mph - N/A   Clear
10:55 AM 63.5 °F - 27.1 °F 25% 30.21 in 10.0 mi East 9.2 mph - N/A   Clear
11:15 AM 64.8 °F - 28.0 °F 25% 30.19 in 10.0 mi SE 10.4 mph - N/A   Clear
11:35 AM 66.2 °F - 28.2 °F 24% 30.19 in 10.0 mi ESE 10.4 mph 16.1 mph N/A   Clear
11:54 AM 68.5 °F - 27.3 °F 21% 30.18 in 10.0 mi SE 11.5 mph 18.4 mph N/A   Clear
12:15 PM 68.5 °F - 25.0 °F 19% 30.18 in 10.0 mi ESE 11.5 mph 19.6 mph N/A   Clear
12:35 PM 68.5 °F - 25.7 °F 20% 30.17 in 10.0 mi SSE 10.4 mph 16.1 mph N/A   Clear
12:54 PM 68.5 °F - 26.8 °F 21% 30.15 in 10.0 mi SSE 15.0 mph 25.3 mph N/A   Clear
1:15 PM 68.5 °F - 27.7 °F 22% 30.16 in 10.0 mi SE 13.8 mph 18.4 mph N/A   Clear
1:34 PM 68.7 °F - 26.8 °F 21% 30.16 in 10.0 mi ESE 12.7 mph 17.3 mph N/A   Clear
1:55 PM 68.5 °F - 26.4 °F 21% 30.16 in 10.0 mi SE 10.4 mph 21.9 mph N/A   Clear
2:15 PM 69.8 °F - 27.5 °F 21% 30.15 in 10.0 mi ESE 8.1 mph 17.3 mph N/A   Clear
2:34 PM 69.3 °F - 26.8 °F 20% 30.14 in 10.0 mi East 16.1 mph 20.7 mph N/A   Clear
2:55 PM 69.4 °F - 26.6 °F 20% 30.14 in 10.0 mi ESE 10.4 mph - N/A   Clear
3:15 PM 70.3 °F - 24.1 °F 18% 30.14 in 10.0 mi SE 12.7 mph 16.1 mph N/A   Scattered Clouds
3:34 PM 70.0 °F - 24.8 °F 18% 30.13 in 10.0 mi SSE 5.8 mph - N/A   Scattered Clouds
3:55 PM 72.3 °F - 26.6 °F 18% 30.11 in 10.0 mi ESE 10.4 mph - N/A   Clear
4:15 PM 70.3 °F - 25.9 °F 19% 30.11 in 10.0 mi SE 16.1 mph 23.0 mph N/A   Clear
4:34 PM 69.8 °F - 26.6 °F 20% 30.09 in 10.0 mi SSE 10.4 mph - N/A   Clear
4:55 PM 69.3 °F - 24.3 °F 18% 30.09 in 10.0 mi SE 10.4 mph 18.4 mph N/A   Clear
5:14 PM 69.1 °F - 26.8 °F 21% 30.08 in 10.0 mi ESE 12.7 mph - N/A   Clear
5:35 PM 68.5 °F - 28.4 °F 22% 30.06 in 10.0 mi East 12.7 mph 20.7 mph N/A   Clear
5:55 PM 68.5 °F - 29.7 °F 23% 30.06 in 10.0 mi SE 12.7 mph 19.6 mph N/A   Clear
6:14 PM 68.5 °F - 30.9 °F 25% 30.06 in 10.0 mi ESE 11.5 mph 18.4 mph N/A   Clear
6:35 PM 68.5 °F - 30.6 °F 24% 30.05 in 10.0 mi East 12.7 mph - N/A   Clear
6:55 PM 68.5 °F - 32.7 °F 27% 30.04 in 10.0 mi ESE 10.4 mph - N/A   Scattered Clouds
7:14 PM 66.9 °F - 32.2 °F 27% 30.04 in 10.0 mi SE 6.9 mph 16.1 mph N/A   Scattered Clouds
7:35 PM 66.0 °F - 32.9 °F 29% 30.04 in 10.0 mi ESE 11.5 mph - N/A   Scattered Clouds
7:55 PM 64.9 °F - 33.6 °F 31% 30.04 in 10.0 mi ESE 10.4 mph - N/A   Mostly Cloudy
8:14 PM 63.5 °F - 33.3 °F 32% 30.04 in 10.0 mi ESE 9.2 mph - N/A   Overcast
8:35 PM 62.2 °F - 33.6 °F 34% 30.04 in 10.0 mi ESE 9.2 mph - N/A   Mostly Cloudy
8:55 PM 61.7 °F - 32.9 °F 34% 30.04 in 10.0 mi SE 9.2 mph - N/A   Mostly Cloudy
9:14 PM 61.0 °F - 33.8 °F 36% 30.04 in 10.0 mi ESE 10.4 mph 16.1 mph N/A   Overcast
9:35 PM 60.4 °F - 34.2 °F 37% 30.04 in 10.0 mi ESE 11.5 mph - N/A   Mostly Cloudy
9:54 PM 59.9 °F - 34.7 °F 39% 30.04 in 10.0 mi ESE 10.4 mph - N/A   Mostly Cloudy
10:15 PM 59.5 °F - 34.9 °F 40% 30.05 in 10.0 mi East 8.1 mph - N/A   Overcast
10:35 PM 58.5 °F - 34.5 °F 41% 30.04 in 10.0 mi East 9.2 mph - N/A   Overcast
10:54 PM 58.5 °F - 35.6 °F 42% 30.04 in 10.0 mi East 9.2 mph - N/A   Scattered Clouds
11:15 PM 56.5 °F - 35.1 °F 45% 30.04 in 10.0 mi East 11.5 mph - N/A   Clear
11:35 PM 55.9 °F - 35.4 °F 46% 30.04 in 10.0 mi East 8.1 mph - N/A   Scattered Clouds
11:54 PM 55.9 °F - 36.1 °F 47% 30.03 in 10.0 mi East 6.9 mph - N/A   Mostly Cloudy